EW1736 Weather Reports


Display with metric or nautical units.
time (UTC)temp
F
wind
direction
speed
MPH
gust
MPH
rain 1hr
in
rain 24hr
in
rain mn
in
humidity
%
barometer
mb
20260906044043 63 306 9.0 13.0 0.00 0.00 0.00 64 1012.0
20260906042537 62 316 4.0 16.0 0.00 0.00 0.00 66 1012.0
20260906041726 62 291 5.0 13.0 0.00 0.00 0.00 66 1012.1
20260906040242 62 246 12.0 17.0 0.00 0.00 0.00 64 1012.2
20260906034032 62 296 3.0 17.0 0.00 0.00 0.00 64 1012.6
20260906032525 62 281 9.0 15.0 0.00 0.00 0.00 63 1012.7
20260906031026 62 273 9.0 15.0 0.00 0.00 0.00 63 1012.8
20260906025522 62 286 11.0 16.0 0.00 0.00 0.00 62 1012.9
20260906024720 62 332 10.0 15.0 0.00 0.00 0.00 61 1013.0
20260906022520 62 284 9.0 17.0 0.00 0.00 0.00 61 1013.1
20260906021014 63 299 11.0 17.0 0.00 0.00 0.00 58 1013.2
20260906015515 63 298 9.0 16.0 0.00 0.00 0.00 57 1013.3
20260906014010 63 313 8.0 16.0 0.00 0.00 0.00 58 1013.5
20260906012506 62 272 14.0 20.0 0.00 0.00 0.00 55 1013.8
20260906011008 63 271 9.0 15.0 0.00 0.00 0.00 56 1014.0
20260906010209 62 293 7.0 14.0 0.00 0.00 0.00 60 1014.3
20260906003957 62 302 6.0 13.0 0.00 0.00 0.00 62 1014.6
20260906003202 62 279 5.0 14.0 0.00 0.00 0.00 63 1015.0
20260906000953 62 301 8.0 15.0 0.00 0.00 0.00 64 1015.3
20260906000150 62 280 10.0 18.0 0.00 0.00 0.00 64 1015.4
20260905233950 61 267 9.0 15.0 0.00 0.00 0.00 65 1015.7
20260905233836 61 285 9.0 17.0 0.00 0.00 0.00 66 1016.1
20260905230946 61 269 11.0 15.0 0.00 0.00 0.00 67 1016.4
20260905225446 60 276 8.0 16.0 0.00 0.00 0.00 69 1017.0
20260905223942 61 263 11.0 16.0 0.00 0.00 0.00 68 1017.1
20260905222438 60 281 9.0 14.0 0.00 0.00 0.00 72 1017.1
20260905220934 61 275 9.0 15.0 0.00 0.00 0.00 72 1017.5
20260905215428 60 255 9.0 17.0 0.00 0.00 0.00 74 1017.7
20260905214626 59 275 7.0 15.0 0.00 0.00 0.00 76 1017.8
20260905212425 58 265 12.0 15.0 0.00 0.00 0.00 77 1017.8
20260905210921 58 265 6.0 11.0 0.00 0.00 0.00 79 1017.9
20260905205422 58 250 6.0 11.0 0.00 0.00 0.00 81 1017.9
20260905203917 56 249 8.0 13.0 0.00 0.00 0.00 82 1018.1
20260905202412 55 270 7.0 11.0 0.00 0.00 0.00 83 1018.1
20260905200913 55 290 7.0 10.0 0.00 0.00 0.00 83 1018.0
20260905195409 54 284 7.0 9.0 0.00 0.00 0.00 83 1017.9
20260905193909 54 284 6.0 11.0 0.00 0.00 0.00 83 1017.9
20260905192405 54 276 10.0 12.0 0.00 0.00 0.00 84 1017.7
20260905190901 53 281 4.0 8.0 0.00 0.00 0.00 83 1017.7
20260905185356 53 274 5.0 9.0 0.00 0.00 0.00 83 1017.4
20260905183850 53 280 5.0 9.0 0.00 0.00 0.00 83 1017.3
20260905182350 52 263 6.0 11.0 0.00 0.00 0.00 83 1017.1
20260905180846 52 274 8.0 11.0 0.00 0.00 0.00 83 1017.1
20260905175347 52 273 8.0 10.0 0.00 0.00 0.00 82 1016.9
20260905173842 52 277 7.0 9.0 0.00 0.00 0.00 82 1017.0
20260905172337 53 306 6.0 10.0 0.00 0.00 0.00 82 1017.1
20260905170839 53 302 8.0 10.0 0.00 0.00 0.00 81 1016.9
20260905170026 53 277 6.0 10.0 0.00 0.00 0.00 81 1017.0
20260905164524 53 281 7.0 9.0 0.00 0.00 0.00 80 1017.0
20260905162331 53 272 5.0 9.0 0.00 0.00 0.00 80 1017.1
20260905160825 53 274 6.0 9.0 0.00 0.00 0.00 80 1017.2
20260905155326 53 286 3.0 7.0 0.00 0.00 0.00 80 1017.1
20260905153823 53 279 4.0 7.0 0.00 0.00 0.00 80 1017.2
20260905152320 53 292 4.0 8.0 0.00 0.00 0.00 80 1016.9
20260905150817 52 313 6.0 10.0 0.00 0.00 0.00 80 1017.2
20260905145314 52 321 5.0 10.0 0.00 0.00 0.00 79 1017.1
20260905143813 53 336 5.0 13.0 0.00 0.00 0.00 78 1017.2
20260905142306 54 288 10.0 13.0 0.00 0.00 0.00 78 1017.5
20260905140804 53 252 9.0 16.0 0.00 0.00 0.00 78 1017.6
20260905135301 54 0 11.0 19.0 0.00 0.00 0.00 77 1017.9
20260905133757 54 250 13.0 18.0 0.00 0.00 0.00 77 1018.0
20260905132955 53 261 11.0 14.0 0.00 0.00 0.00 78 1018.0
20260905131443 53 235 6.0 9.0 0.00 0.00 0.00 77 1018.2
20260905125250 53 282 6.0 11.0 0.00 0.00 0.00 77 1018.4
20260905123747 53 274 5.0 7.0 0.00 0.00 0.00 77 1018.4
20260905122247 53 313 4.0 5.0 0.00 0.00 0.00 77 1018.6
20260905120741 53 326 2.0 7.0 0.00 0.00 0.00 76 1018.6
20260905115228 53 302 4.0 8.0 0.00 0.00 0.00 76 1018.6
20260905113724 53 253 4.0 7.0 0.00 0.00 0.00 76 1018.7
20260905112224 53 247 2.0 7.0 0.00 0.00 0.00 75 1018.8
20260905111432 53 246 3.0 8.0 0.00 0.00 0.00 75 1018.7
20260905105917 53 276 6.0 8.0 0.00 0.00 0.00 75 1018.8
20260905103717 54 272 5.0 12.0 0.00 0.00 0.00 74 1018.7
20260905102213 54 280 9.0 14.0 0.00 0.00 0.00 74 1018.8
20260905100712 55 240 11.0 15.0 0.00 0.00 0.00 74 1019.0
20260905095206 55 273 9.0 15.0 0.00 0.00 0.00 74 1018.7
20260905093702 55 267 11.0 15.0 0.00 0.00 0.00 73 1018.7
20260905092202 55 270 11.0 17.0 0.00 0.00 0.00 73 1018.7
20260905090700 54 269 6.0 10.0 0.00 0.00 0.00 72 1019.0
20260905085905 54 273 7.0 9.0 0.00 0.00 0.00 71 1019.0
20260905083655 54 264 3.0 7.0 0.00 0.00 0.00 69 1019.2
20260905082844 54 255 2.0 6.0 0.00 0.00 0.00 68 1018.6
20260905080652 55 250 3.0 9.0 0.00 0.00 0.00 67 1018.1
20260905075146 55 229 6.0 9.0 0.00 0.00 0.00 66 1017.9
20260905073646 55 235 5.0 8.0 0.00 0.00 0.00 66 1017.8
20260905072142 55 266 4.0 9.0 0.00 0.00 0.00 66 1017.5
20260905070638 56 290 2.0 5.0 0.00 0.00 0.00 67 1017.5
20260905065138 56 321 0.0 3.0 0.00 0.00 0.00 66 1017.7
20260905063634 57 259 3.0 9.0 0.00 0.00 0.00 65 1017.8
20260905062136 57 258 6.0 14.0 0.00 0.00 0.00 64 1017.7
20260905060630 58 265 9.0 13.0 0.00 0.00 0.00 63 1017.6
20260905055827 58 254 10.0 15.0 0.00 0.00 0.00 61 1017.5
20260905053626 60 268 9.0 13.0 0.00 0.01 0.00 61 1017.4
20260905052122 60 280 9.0 21.0 0.00 0.02 0.00 60 1017.3
20260905050624 61 0 9.0 17.0 0.00 0.02 0.00 56 1017.4
20260905045823 62 221 13.0 23.0 0.00 0.02 0.00 55 1017.5